Other Surface Observations
Issued by NWS Charleston, SC

Home | Current Version | Previous Version | Text Only | Print | Product List | Glossary On
Versions: 1 2 3 4 5 6 7 8 9 10 11 12 13 14 15 16 17 18 19 20 21 22 23 24 25 26 27 28 29 30 31 32 33 34 35 36 37 38 39 40 41 42 43 44 45 46 47 48 49 50
837
SXUS52 KCHS 100812
OSOCHS

MARINE OBSERVATIONS
NATIONAL WEATHER SERVICE CHARLESTON SC
300 AM EST SAT DEC 10 2016

...DOWNTOWN CHARLESTON AND HARBOR...

CITY           SKY/WX    TMP DP  RH WIND       PRES   REMARKS
WATERFRONT PRK   N/A     39  30  70 NE8       30.46R WCI  33

...LAKE MOULTRIE...

CITY           SKY/WX    TMP DP  RH WIND       PRES   REMARKS
PINOPOLIS        N/A     39  28  65 E12       30.40R WCI  32

...LAKE AND SUPPLEMENTAL COASTAL OBSERVATIONS...

STATION/POSITION TIME  TEMP    WIND        PRES    WAVE   SWELL
                       AIR SEA DIR/SP/G            HT/PER HT/PER/DIR
                 (UTC) (F)     (DEG/KT/KT) (MB)    (FT/S) (FT/S/D)
FORT PULASKI     0748   44 59   50/ 11/ 14 1031.6R
SAPELO ISLAND    0700   42     360/  8     1030.0
WINYAH BAY       0645   34      10/  6     1032.0
LAKE MURRAY      0720   32      10/  2/  4 1032.2
ACE BASIN NERRS  0645   35        CALM     1031.0


...C-MAN AND BUOY OBSERVATIONS...

STATION/POSITION TIME  TEMP    WIND        PRES    WAVE   SWELL
                       AIR SEA DIR/SP/G            HT/PER HT/PER/DIR
                 (UTC) (F)     (DEG/KT/KT) (MB)    (FT/S) (FT/S/D)
BUOY 41004       0750   50 73   20/ 14/ 19 1030.2R   4/ 5   2/ 90/ 8
BUOY 41008       0750   51 62   40/ 14/ 17 1030.0R   3/ 5   2/ 90/ 9
FOLLY BEACH CMAN 0800   42      30/ 15/ 17 1032.1R
CAPERS NS BUOY   0708   44 60   30/ 17/ 21 1031.1R
FRIPP NS BUOY    0708   46 60   40/ 16/ 21 1031.1R
5E ST. MARYS GA  0800      64                N/A     4/ 4


STATION/POSITION TIME  TEMP    WIND        PRES    WAVE   SWELL
                       AIR SEA DIR/SP/G            HT/PER HT/PER/DIR
                 (UTC) (F)     (DEG/KT/KT) (MB)    (FT/S) (FT/S/D)
FRYING PAN BUOY  0750   45 72  350/ 14/ 21 1031.2F   3/ 5   2/ 50/ 9
BUOY 41025       0750   42 77  340/ 14/ 23 1030.8R   5/ 9   3/ 60/ 9
CAPE LOOKOUT NC  0700   38     340/ 11/ 13 1031.1R
BUOY 41002       0750   58 73  350/  8/ 12 1027.2R   6/ 7   5/ 20/ 7
BUOY 41010       NOT AVBL
ST AUGUSTINE FL  0800   56 63   10/ 18/ 19 1028.7F

$$




USA.gov is the U.S. government's official web portal to all federal, state and local government web resources and services.